EW1392 Weather Reports


Display with metric or nautical units.
time (UTC)temp
F
wind
direction
speed
MPH
gust
MPH
rain 1hr
in
rain 24hr
in
rain mn
in
humidity
%
barometer
mb
20260503211501 82 178 0.0 1.0 0.00 0.00 0.00 24 1009.7
20260503210059 82 178 0.0 2.0 0.00 0.00 0.00 24 1010.0
20260503204619 82 209 0.0 4.0 0.00 0.00 0.00 25 1010.2
20260503203100 82 298 0.0 3.0 0.00 0.00 0.00 24 1010.4
20260503201552 81 14 0.0 3.0 0.00 0.00 0.00 25 1010.7
20260503200048 80 5 0.0 3.0 0.00 0.00 0.00 25 1010.8
20260503194547 79 236 0.0 2.0 0.00 0.00 0.00 27 1011.1
20260503193046 78 309 0.0 2.0 0.00 0.00 0.00 31 1011.4
20260503191604 78 48 0.0 1.0 0.00 0.00 0.00 32 1011.7
20260503190040 77 27 0.0 4.0 0.00 0.00 0.00 31 1012.0
20260503184536 75 167 0.0 1.0 0.00 0.00 0.00 36 1012.2
20260503183028 74 168 0.0 3.0 0.00 0.00 0.00 37 1012.5
20260503181529 72 221 0.0 1.0 0.00 0.00 0.00 44 1012.7
20260503180025 70 190 0.0 1.0 0.00 0.00 0.00 49 1012.9
20260503174515 69 190 0.0 2.0 0.00 0.00 0.00 49 1013.1
20260503173014 68 240 0.0 0.0 0.00 0.00 0.00 49 1013.3
20260503171508 67 243 0.0 1.0 0.00 0.00 0.00 52 1013.6
20260503081504 45 337 0.0 0.0 0.00 0.00 0.00 88 1014.8
20260503071612 48 337 0.0 0.0 0.00 0.00 0.00 86 1014.6
20260503054607 52 337 0.0 0.0 0.00 0.00 0.00 81 1014.0
20260503053050 53 337 0.0 0.0 0.00 0.00 0.00 79 1014.1
20260503051550 53 337 0.0 0.0 0.00 0.00 0.00 78 1013.9
20260503050049 54 337 0.0 0.0 0.00 0.00 0.00 77 1013.8
20260503044549 55 337 0.0 0.0 0.00 0.00 0.00 75 1013.6
20260503043054 56 337 0.0 0.0 0.00 0.00 0.00 75 1013.5
20260503041548 57 337 0.0 0.0 0.00 0.00 0.00 72 1013.3
20260503040051 58 337 0.0 0.0 0.00 0.00 0.00 70 1012.9
20260503034549 59 337 0.0 0.0 0.00 0.00 0.00 69 1012.6
20260503033047 61 337 0.0 0.0 0.00 0.00 0.00 65 1012.2
20260503031546 62 337 0.0 0.0 0.00 0.00 0.00 64 1012.0
20260503030045 64 337 0.0 0.0 0.00 0.00 0.00 61 1011.8
20260503024546 67 337 0.0 0.0 0.00 0.00 0.00 56 1011.7
20260503023047 69 337 0.0 0.0 0.00 0.00 0.00 50 1011.5
20260503021544 71 337 0.0 0.0 0.00 0.00 0.00 48 1011.5
20260503020043 73 337 0.0 0.0 0.00 0.00 0.00 43 1011.5
20260503014551 75 337 0.0 0.0 0.00 0.00 0.00 41 1011.6
20260503013044 76 337 0.0 2.0 0.00 0.00 0.00 32 1011.6
20260503011542 75 21 0.0 1.0 0.00 0.00 0.00 31 1011.5
20260503010043 75 22 0.0 0.0 0.00 0.00 0.00 37 1011.6
20260503004541 76 22 0.0 2.0 0.00 0.00 0.00 34 1011.6
20260503003045 77 156 0.0 0.0 0.00 0.00 0.00 32 1011.7
20260503001544 78 285 0.0 2.0 0.00 0.00 0.00 32 1011.8
20260503000041 78 173 0.0 1.0 0.00 0.00 0.00 29 1011.9
20260502234547 78 34 0.0 1.0 0.00 0.00 0.00 31 1012.0
20260502233040 78 5 0.0 1.0 0.00 0.00 0.00 33 1012.1
20260502231531 78 5 0.0 3.0 0.00 0.00 0.00 36 1012.2
20260502230033 78 319 1.0 4.0 0.00 0.00 0.00 33 1012.5
20260502224526 78 25 0.0 0.0 0.00 0.00 0.00 35 1012.7
20260502223035 77 128 0.0 1.0 0.00 0.00 0.00 36 1012.9
20260502221519 77 60 0.0 1.0 0.00 0.00 0.00 36 1013.2
20260502220022 76 290 0.0 2.0 0.00 0.00 0.00 39 1013.2
20260502214515 75 247 1.0 3.0 0.00 0.00 0.00 38 1013.4
20260502213013 75 67 0.0 0.0 0.00 0.00 0.00 41 1013.5